TimeCDT,TemperatureF,Dew PointF,Humidity,Sea Level PressureIn,VisibilityMPH,Wind Direction,Wind SpeedMPH,Gust SpeedMPH,PrecipitationIn,Events,Conditions,WindDirDegrees,DateUTC
12:15 AM,58.3,57.6,97,30.16,10.0,Calm,Calm,-,N/A,,Clear,0,2013-09-16 05:15:00
12:35 AM,57.6,56.8,97,30.17,10.0,Calm,Calm,-,N/A,,Scattered Clouds,0,2013-09-16 05:35:00
12:55 AM,57.7,57.2,98,30.16,7.0,Calm,Calm,-,N/A,,Scattered Clouds,0,2013-09-16 05:55:00
1:15 AM,57.4,57.2,99,30.16,2.5,Calm,Calm,-,N/A,,Mostly Cloudy,0,2013-09-16 06:15:00
1:35 AM,58.1,58.1,100,30.17,0.8,Calm,Calm,-,N/A,,Overcast,0,2013-09-16 06:35:00
1:55 AM,58.5,58.5,100,30.16,0.2,Calm,Calm,-,N/A,Fog,Fog,0,2013-09-16 06:55:00
2:15 AM,58.5,58.5,100,30.16,0.2,Calm,Calm,-,N/A,Fog,Fog,0,2013-09-16 07:15:00
2:35 AM,58.3,58.3,100,30.16,0.2,Calm,Calm,-,N/A,Fog,Fog,0,2013-09-16 07:35:00
2:55 AM,58.1,58.1,100,30.17,0.2,Calm,Calm,-,N/A,Fog,Fog,0,2013-09-16 07:55:00
3:15 AM,58.1,58.1,100,30.17,0.5,Calm,Calm,-,N/A,Fog,Fog,0,2013-09-16 08:15:00
3:35 AM,57.9,57.9,100,30.17,0.2,Calm,Calm,-,N/A,Fog,Fog,0,2013-09-16 08:35:00
3:55 AM,58.1,58.1,100,30.17,0.5,Calm,Calm,-,N/A,Fog,Fog,0,2013-09-16 08:55:00
4:15 AM,57.9,57.9,100,30.17,0.8,Calm,Calm,-,N/A,,Overcast,0,2013-09-16 09:15:00
4:35 AM,57.6,57.6,100,30.17,1.2,Calm,Calm,-,N/A,,Overcast,0,2013-09-16 09:35:00
4:55 AM,57.7,57.7,100,30.17,0.8,Calm,Calm,-,N/A,,Overcast,0,2013-09-16 09:55:00
5:15 AM,57.7,57.7,100,30.18,0.2,Calm,Calm,-,N/A,Fog,Fog,0,2013-09-16 10:15:00
5:35 AM,57.7,57.7,100,30.18,0.2,Calm,Calm,-,N/A,Fog,Fog,0,2013-09-16 10:35:00
5:55 AM,57.7,57.7,100,30.18,0.5,Calm,Calm,-,N/A,Fog,Fog,0,2013-09-16 10:55:00
6:15 AM,57.7,57.7,100,30.18,0.5,Calm,Calm,-,N/A,Fog,Fog,0,2013-09-16 11:15:00
6:35 AM,57.7,57.7,100,30.19,0.2,Calm,Calm,-,N/A,Fog,Fog,0,2013-09-16 11:35:00
6:55 AM,57.6,57.6,100,30.19,0.2,Calm,Calm,-,N/A,Fog,Fog,0,2013-09-16 11:55:00
7:15 AM,57.9,57.9,100,30.19,0.2,Calm,Calm,-,N/A,Fog,Fog,0,2013-09-16 12:15:00
7:35 AM,58.1,58.1,100,30.20,0.8,Calm,Calm,-,N/A,,Overcast,0,2013-09-16 12:35:00
7:55 AM,58.3,58.3,100,30.20,0.5,Calm,Calm,-,N/A,Fog,Fog,0,2013-09-16 12:55:00
8:15 AM,58.5,58.5,100,30.20,1.5,Calm,Calm,-,N/A,,Overcast,0,2013-09-16 13:15:00
8:35 AM,58.8,58.8,100,30.21,4.0,Calm,Calm,-,N/A,,Overcast,0,2013-09-16 13:35:00
8:55 AM,59.5,59.2,99,30.21,7.0,Calm,Calm,-,N/A,,Overcast,0,2013-09-16 13:55:00
9:15 AM,60.1,59.5,98,30.21,7.0,Calm,Calm,-,N/A,,Overcast,0,2013-09-16 14:15:00
9:35 AM,60.8,60.1,97,30.22,7.0,Calm,Calm,-,N/A,,Overcast,0,2013-09-16 14:35:00
9:55 AM,61.5,60.1,95,30.22,10.0,Calm,Calm,-,N/A,,Overcast,0,2013-09-16 14:55:00
10:15 AM,63.0,60.6,92,30.21,10.0,Calm,Calm,-,N/A,,Overcast,0,2013-09-16 15:15:00
10:35 AM,63.5,61.0,91,30.22,10.0,Calm,Calm,-,N/A,,Overcast,0,2013-09-16 15:35:00
10:55 AM,64.0,61.5,91,30.22,10.0,Calm,Calm,-,N/A,Rain,Light Rain,0,2013-09-16 15:55:00
11:15 AM,65.1,61.5,88,30.23,10.0,Calm,Calm,-,N/A,,Overcast,0,2013-09-16 16:15:00
11:35 AM,65.8,61.9,87,30.22,10.0,Calm,Calm,-,N/A,,Overcast,0,2013-09-16 16:35:00
11:55 AM,67.6,62.8,84,30.22,10.0,Calm,Calm,-,N/A,,Overcast,0,2013-09-16 16:55:00
12:15 PM,70.9,63.0,76,30.22,10.0,Calm,Calm,-,N/A,,Overcast,0,2013-09-16 17:15:00
12:35 PM,70.3,61.9,74,30.22,10.0,NNE,4.6,-,N/A,,Overcast,30,2013-09-16 17:35:00
12:55 PM,67.8,63.9,87,30.23,7.0,NNE,4.6,-,N/A,Rain,Light Rain,20,2013-09-16 17:55:00
1:15 PM,68.4,63.9,85,30.21,10.0,NNE,3.5,-,N/A,,Overcast,20,2013-09-16 18:15:00
1:35 PM,68.9,64.4,86,30.21,10.0,NNE,3.5,-,N/A,,Overcast,20,2013-09-16 18:35:00
1:55 PM,68.9,61.0,76,30.21,10.0,NNE,4.6,-,N/A,,Overcast,20,2013-09-16 18:55:00
2:15 PM,68.9,61.2,76,30.21,10.0,NE,4.6,-,N/A,,Overcast,40,2013-09-16 19:15:00
2:35 PM,68.7,62.6,81,30.21,10.0,NE,3.5,-,N/A,Rain,Rain,50,2013-09-16 19:35:00
2:55 PM,68.0,62.8,83,30.20,10.0,Calm,Calm,-,N/A,,Drizzle,0,2013-09-16 19:55:00
3:15 PM,67.5,62.6,84,30.19,7.0,Calm,Calm,-,N/A,,Drizzle,0,2013-09-16 20:15:00
3:35 PM,67.3,62.4,84,30.19,10.0,Calm,Calm,-,N/A,,Overcast,0,2013-09-16 20:35:00
3:55 PM,67.8,62.6,83,30.19,10.0,West,3.5,-,N/A,,Overcast,280,2013-09-16 20:55:00
4:15 PM,68.0,62.2,82,30.20,10.0,WNW,3.5,-,N/A,,Overcast,300,2013-09-16 21:15:00
4:35 PM,67.1,62.1,84,30.20,10.0,Calm,Calm,-,N/A,,Overcast,0,2013-09-16 21:35:00
4:55 PM,67.1,62.6,85,30.20,10.0,Calm,Calm,-,N/A,,Overcast,0,2013-09-16 21:55:00
5:15 PM,67.1,63.0,87,30.20,10.0,Calm,Calm,-,N/A,,Overcast,0,2013-09-16 22:15:00
5:35 PM,67.1,62.8,86,30.19,10.0,Calm,Calm,-,N/A,,Overcast,0,2013-09-16 22:35:00
5:55 PM,67.1,61.9,83,30.20,10.0,Calm,Calm,-,N/A,,Overcast,0,2013-09-16 22:55:00
6:15 PM,67.1,61.0,81,30.20,10.0,Calm,Calm,-,N/A,,Overcast,0,2013-09-16 23:15:00
6:35 PM,66.2,62.6,88,30.20,10.0,Calm,Calm,-,N/A,,Overcast,0,2013-09-16 23:35:00
6:55 PM,65.5,63.1,92,30.20,10.0,Calm,Calm,-,N/A,,Overcast,0,2013-09-16 23:55:00
7:15 PM,64.9,62.8,93,30.21,10.0,Calm,Calm,-,N/A,,Overcast,0,2013-09-17 00:15:00
7:35 PM,64.8,62.6,93,30.21,10.0,Calm,Calm,-,N/A,,Overcast,0,2013-09-17 00:35:00
7:55 PM,64.6,62.6,93,30.22,10.0,Calm,Calm,-,N/A,,Overcast,0,2013-09-17 00:55:00
8:15 PM,63.7,62.6,96,30.22,10.0,Calm,Calm,-,N/A,,Mostly Cloudy,0,2013-09-17 01:15:00
8:35 PM,62.6,61.9,97,30.21,10.0,Calm,Calm,-,N/A,,Scattered Clouds,0,2013-09-17 01:35:00
8:55 PM,61.9,61.5,99,30.22,7.0,Calm,Calm,-,N/A,,Clear,0,2013-09-17 01:55:00
9:15 PM,62.1,61.2,97,30.23,10.0,Calm,Calm,-,N/A,,Mostly Cloudy,0,2013-09-17 02:15:00
9:35 PM,61.7,61.0,97,30.23,10.0,Calm,Calm,-,N/A,,Overcast,0,2013-09-17 02:35:00
9:55 PM,61.7,61.0,97,30.23,10.0,Calm,Calm,-,N/A,,Overcast,0,2013-09-17 02:55:00
10:15 PM,61.2,60.8,99,30.23,7.0,Calm,Calm,-,N/A,,Mostly Cloudy,0,2013-09-17 03:15:00
10:35 PM,61.0,60.8,99,30.24,7.0,Calm,Calm,-,N/A,,Overcast,0,2013-09-17 03:35:00
10:55 PM,61.0,60.8,99,30.25,7.0,Calm,Calm,-,N/A,,Overcast,0,2013-09-17 03:55:00
11:15 PM,60.8,60.4,99,30.25,7.0,Calm,Calm,-,N/A,,Overcast,0,2013-09-17 04:15:00
11:35 PM,60.8,60.3,98,30.24,7.0,Calm,Calm,-,N/A,,Overcast,0,2013-09-17 04:35:00
11:55 PM,60.8,60.4,99,30.25,7.0,Calm,Calm,-,N/A,,Overcast,0,2013-09-17 04:55:00